AirNav   Get $300 off a Bose A20 Aviation Headset
 
 298 users online  

26A Ashland/Lineville Airport
Ashland/Lineville, Alabama, USA

GOING TO ASHLAND/LINEVILLE?


FAA INFORMATION EFFECTIVE 12 SEPTEMBER 2019

Location

FAA Identifier: 26A
Lat/Long: 33-17-03.1100N 085-48-32.2750W
33-17.051833N 085-48.537917W
33.2841972,-85.8089653
(estimated)
Elevation: 1065 ft. / 324.6 m (surveyed)
Variation: 01W (1985)
From city: 2 miles NE of central business district of the associated city
Time zone: UTC -5 (UTC -6 during Standard Time)
Zip code: 36251

Airport Operations

Airport use: Open to the public
Activation date: 04/1968
Control tower: no
ARTCC: ATLANTA CENTER
FSS: ANNISTON FLIGHT SERVICE STATION
NOTAMs facility: ANB (NOTAM-D service available)
Attendance: UNATNDD
Wind indicator: lighted
Segmented circle: no
Lights: ACTVT MIRL RY 09/27 AND REIL RY 09 & 27 - CTAF.
Beacon: white-green (lighted land airport)
Operates sunset to sunrise.

Airport Communications

CTAF: 122.9
WX ASOS at ANB (18 nm N): 119.675 (256-835-3931)

Nearby radio navigation aids

VOR radial/distance  VOR name  Freq  Var
TDGr144/21.0TALLADEGA VOR/DME108.8002E
LGCr294/33.4LAGRANGE VORTAC115.6001E

 
NDB name  Hdg/Dist  Freq  Var  ID
CARROLLTON248/37.927804WGPQ --. .--. --.-

Airport Services

Parking: tiedowns
Bottled oxygen: NONE
Bulk oxygen: NONE

Runway Information

Runway 9/27

Dimensions: 4023 x 80 ft. / 1226 x 24 m
Surface: asphalt, in good condition
Weight bearing capacity: 
Single wheel: 20.0
Runway edge lights: medium intensity
RUNWAY 9  RUNWAY 27
Latitude: 33-17.051833N33-17.051833N
Longitude: 085-48.932833W085-48.143000W
Elevation: 1065.9 ft.1057.3 ft.
Traffic pattern: leftleft
Displaced threshold: 200 ft.no
Declared distances: TORA:4023 TODA:4023TORA:3823 TODA:4023
Markings: nonprecision, in good conditionnonprecision, in good condition
Runway end identifier lights: yesyes
Obstructions: 35 ft. pole, 969 ft. from runway, 18 ft. left of centerline, 21:1 slope to clear
APCH RATIO 33:1 TO DSPLCD THLD.
46 ft. tree, 1317 ft. from runway, 2 ft. right of centerline, 24:1 slope to clear

Airport Ownership and Management from official FAA records

Ownership: Publicly-owned
Owner: CLAY COUNTY COMMISSION
P. O. BOX 187
ASHLAND, AL 36251
Phone (256) 354-7888
Manager: CLAY COUNTY COMMISSION
375 AIRPORT ROAD
ASHLAND, AL 36251
Phone (256) 354-7888
CHAIRMAN, CLAY COUNTY COMMISSION, ROY JOHNSON.

Airport Operational Statistics

Aircraft based on the field: 7
Single engine airplanes: 6
Multi engine airplanes: 1
    
Aircraft operations: avg 55/week *
87% transient general aviation
10% local general aviation
3% military
* for 12-month period ending 28 February 2018

Additional Remarks

FOR CD CTC ATLANTA ARTCC AT 770-210-7692.

Instrument Procedures

There are no published instrument procedures at 26A.

Some nearby airports with instrument procedures:

KANB - Anniston Regional Airport (18 nm N)
KASN - Talladega Municipal Airport (21 nm NW)
KALX - Thomas C Russell Field Airport (23 nm S)
KSCD - Merkel Field Sylacauga Municipal Airport (26 nm W)
KPLR - St Clair County Airport (28 nm NW)
 
Loc | Ops | Rwys | IFR | FBO | Links
Com | Nav | Svcs | Stats | Notes
Area around 26A (Ashland/Lineville Airport)
 
Road maps at: MapQuest Bing Google
 
Aerial photo
No photo
 
Sectional chart

 
Airport distance calculator
Flying to Ashland/Lineville Airport? Find the distance to fly.

From to 26A

Sunrise and sunset
Times for 21-Sep-2019
 Local
(UTC-5)
 Zulu
(UTC)
Morning civil twilight06:0711:07
Sunrise06:3211:32
Sunset18:4123:41
Evening civil twilight19:0600:06

Current date and time
Zulu (UTC)  21-Sep-2019 09:10:40
Local (UTC-5)  21-Sep-2019 04:10:40
 
METAR
KANB 
18nm N 
210853Z AUTO 05005KT 10SM CLR 18/12 A3026 RMK AO2 SLP238 T01780117 58001
KASN 
21nm NW 
210855Z AUTO 08003KT 10SM CLR 16/13 A3026 RMK AO2 T01560132
KALX 
24nm S 
210855Z AUTO 00000KT 10SM CLR 18/12 A3025 RMK AO2 T01750120
KSCD 
26nm W 
210855Z AUTO 00000KT 10SM CLR 16/12 A3024 RMK AO2 T01630115
KPLR 
28nm NW 
210855Z AUTO 00000KT 10SM CLR 14/14 A3025 RMK A01
TAF
KANB 
18nm N 
210525Z 2106/2206 06005KT P6SM SKC FM211500 13005KT P6SM FEW050
KASN 
21nm NW 
210525Z 2106/2206 00000KT P6SM SKC FM211500 13006KT P6SM FEW050
NOTAMs
Click for the latest NOTAMs
NOTAMs are issued by the DoD/FAA and will open in a separate window not controlled by AirNav.

 

 
 

Would you like to see your business listed on this page?

 If your business provides an interesting product or service to pilots, flight crews, aircraft, or users of the Ashland/Lineville Airport, you should consider listing it here.  To start the listing process, click on the button below
 
Add a business
 

Other Pages about Ashland/Lineville Airport

Update a link
 
Copyright © AirNav, LLC. All rights reserved. Privacy Policy  Contact